Flag for Canada Weather past 2 weeks in Resolute Bay, Nunavut Territory, Canada

Now
-33 °F

Snow flurries. Passing clouds.


Feels Like: -66 °F
Forecast: -37 / -33 °F
Wind: 22 mph from North

Location: Resolute

Current Time: Mar 3, 2015 at 10:00:56 PM

Latest Report: Mar 3, 2015 at 9:00 PM


Visibility: 10 mi

Pressure: 29.98 "Hg

Humidity: 66%

Dew point: -40 °F

Location of Resolute BayLocation

Historic Weather in Resolute Bay — Graph

°F

Resolute Bay temperature yesterday

Maximum temperature yesterday: -24 °F (at 2:00 PM)
Minimum temperature yesterday: -35 °F (at 12:00 AM)
Average temperature yesterday: -28 °F

Past Weeks' High & Low Weather Summary

 TemperatureHumidityPressure
High-11 °F (Feb 24, 11:00 AM)76% (Feb 21, 10:00 PM)30.51 "Hg (Feb 21, 10:00 PM)
Low-36 °F (Mar 1, 4:00 AM)66% (Feb 18, 1:00 PM)29.33 "Hg (Feb 27, 1:00 PM)
Average-24 °F72%29.94 "Hg
* Reported Feb 16 8:00 PM — Mar 3 8:00 PM, Resolute Bay, Weather by CustomWeather, © 2015

Note: Actual official high and low records may vary slightly from our data, if they occured in-between our weather recording intervals... More about our weather records

Advertising

Resolute Bay weather history for previous 24 hours

 ConditionsComfort  
Time TempWeatherWind HumidityBarometerVisibility
8:00 PM
Tue, Mar 3
-33 °FLight snow. Passing clouds.22 mph66%29.99 "Hg4 mi
7:00 PM-33 °FLight snow. Passing clouds.16 mph74%30.02 "Hg15 mi
6:00 PM-29 °FLight snow. Overcast.10 mph67%30.03 "Hg15 mi
5:00 PM-29 °FLight snow. Overcast.16 mph74%30.03 "Hg13 mi
4:00 PM-29 °FLight snow. Partly sunny.13 mph74%30.05 "Hg15 mi
3:00 PM-27 °FLight snow. Overcast.9 mph74%30.05 "Hg10 mi
2:00 PM-27 °FLight snow. Partly sunny.9 mph74%30.05 "Hg15 mi
1:00 PM-27 °FLight snow. Partly sunny.6 mph74%30.05 "Hg15 mi
12:00 PM-27 °FLight snow. Partly sunny.7 mph74%30.06 "Hg15 mi
11:00 AM-26 °FLight snow. Partly sunny.5 mph67%30.06 "Hg15 mi
10:00 AM-26 °FLight snow. Scattered clouds.2 mph67%30.06 "Hg15 mi
9:00 AM-27 °FLight snow. Scattered clouds.6 mph67%30.06 "Hg15 mi
8:00 AM-27 °FLight snow. Passing clouds.7 mph74%30.06 "Hg12 mi
7:00 AM-27 °FLight snow. Passing clouds.7 mph74%30.06 "Hg12 mi
6:00 AM-27 °FLight snow. Passing clouds.7 mph67%30.06 "Hg15 mi
5:00 AM-27 °FLight snow. Passing clouds.6 mph74%30.06 "Hg15 mi
4:00 AM-27 °FLight snow. Passing clouds.9 mph74%30.06 "Hg15 mi
3:00 AM-26 °FLight snow. Passing clouds.3 mph67%30.06 "Hg15 mi
2:00 AM-26 °FLight snow. Partly cloudy.6 mph75%30.05 "Hg15 mi
1:00 AM-26 °FLight snow. Passing clouds.5 mph75%30.05 "Hg12 mi
12:00 AM-26 °FLight snow. Passing clouds.6 mph75%30.05 "Hg12 mi
11:00 PM
Mon, Mar 2
-26 °FLight snow. Passing clouds.7 mph75%30.05 "Hg13 mi
10:00 PM-26 °FLight snow. Passing clouds.7 mph75%30.05 "Hg15 mi
Weather by CustomWeather, © 2015

See weather overviewHow to use our weather pages